Погода в Камашах

Узбекистан     38°48′44″N   66°28′48″E
темп.,
°C
ветер,
м/с
пор.,
м/с
влажн.,
%
обл.,
%
осадки,
мм/ч
давл.,
гПа
погр.,
м
1 марта, пн
пн123:00+7ююв113911 0.0 101922
02:00+6юв223455 0.0 101923
05:00+8юв442336 0.0 101946
08:00+10юв69200 0.0 101991
11:00+18ююз610150 0.0 10192167
14:00+20юз810140 0.0 10182919
17:00+18юз68160 0.0 10171605
20:00+12ююв23280 0.0 101922
2 марта, вт
вт223:00+11вюв233030 0.0 102025
02:00+10вюв222884 0.0 102028
05:00+10всв122792 0.0 102025
08:00+11всв1228100 0.0 102125
11:00+15з2221100 0.0 1021284
14:00+17з4520100 0.0 10201293
17:00+15зсз4525100 0.0 10192360
20:00+12ссз3438100 0.0 1022110
3 марта, ср
ср323:00+10вюв124491 0.0 102224
02:00+10юв225389 0.0 102244
05:00+9юв587291 0.0 1022170
08:00+9юв237070 0.0 102264
11:00+14юз454254 0.0 10211401
14:00+15зюз563970 0.0 10191693
17:00+15зсз233782 0.0 10181460
20:00+11всв224433 0.0 101823
4 марта, чт
чт423:00+9в125916 0.0 101822
02:00+9в12600 0.0 101723
05:00+9всв125529 0.0 101624
08:00+11в334892 0.0 101756
11:00+15сз443793 0.0 1017677
14:00+15с324567 0.2 1017587
17:00+15св445164 0.4 1017520
20:00+12в126634 0.4 101927
5 марта, пт
пт523:00+11юв336122 0.6 102226
02:00+8з266633 0.1 1023370
05:00+6ссв348967 1.9 1026342
08:00+6вюв3583100 5.4 1027238
11:00+13вюв235098 5.6 1025657
14:00+16зсз33403 0.0 10211374
17:00+14ссз434922 0.0 1019736
20:00+11с1266100 0.0 101730